Погода в Дружной Горке

Россия / Санкт-Петербург и Ленинградская область     59°16′54″N   30°07′20″E
темп.,
°C
ветер,
м/с
пор.,
м/с
влажн.,
%
обл.,
%
осадки,
мм/ч
давл.,
гПа
погр.,
м
6 августа, пт
пт600:00+11св239177 0.0 101572
03:00+12ссв238979 0.0 1015103
06:00+12св268761 0.0 1015231
09:00+16св586731 0.0 10141041
12:00+18всв5754100 0.1 10141603
15:00+18св685477 0.1 10121625
18:00+15всв5876100 0.1 1012949
21:00+13св41087100 0.1 1012571
7 августа, сб
сб700:00+13всв41188100 0.0 1011536
03:00+13св41193100 0.0 1010538
06:00+14всв51291100 0.0 1009561
09:00+14всв51398100 0.8 1008709
12:00+14всв51197100 0.1 1007616
15:00+15в41099100 2.6 1006534
18:00+16в3899100 0.9 1005489
21:00+17в269999 1.0 1006283
8 августа, вс
вс800:00+16вюв249978 0.0 1006161
03:00+14ю269716 0.2 1007206
06:00+13ю2797100 0.1 1008232
09:00+14ююз2595100 0.3 1010260
12:00+16ююз2490100 0.0 1011401
15:00+17ю138481 0.1 1012256
18:00+22ююз245946 0.0 10121244
21:00+17ю2288100 0.1 101348
9 августа, пн
пн900:00+16ююв239386 0.0 101454
03:00+15ююв2497100 0.0 101482
06:00+14юв289789 0.0 1013187
09:00+19ююв497633 0.1 1012508
12:00+23ююз5763100 0.0 10131316
15:00+19ююз4777100 0.2 1014725
18:00+20ююз387639 0.0 1015879
21:00+17юз27945 0.1 1016223
10 августа, вт
вт1000:00+15юз269824 0.1 1017125
03:00+14ююз25970 0.1 1017108
06:00+13юз24977 0.0 101798
09:00+18юз347577 0.0 1018506
12:00+22юз2353100 0.0 10181304
15:00+23юз2346100 0.0 10181913
18:00+23юз125096 0.0 10171327
21:00+18св117293 0.0 101716